Home   Weather   Unalaska   Past weeks

Flag for USA Past Weather in Unalaska, Alaska, USA — Yesterday and Last 2 Weeks

Now
51 °F

Overcast.


Feels Like: 46 °F
Forecast: 49 / 53 °F
Wind: 15 mph from Southwest

Location: Dutch Harbor

Current Time: Sep 25, 2016 at 9:29:40 PM

Latest Report: Sep 25, 2016 at 8:56 PM


Visibility: 10 mi

Pressure: 30.02 "Hg

Humidity: 61%

Dew Point: 38 °F

Location of UnalaskaLocation

Past Weather in Unalaska — Graph

°F

Unalaska Temperature Yesterday

Maximum temperature yesterday: 52 °F (at 2:56 PM)
Minimum temperature yesterday: 47 °F (at 7:56 AM)
Average temperature yesterday: 49 °F

High & Low Weather Summary for the Past Weeks

 TemperatureHumidityPressure
High61 °F (Sep 12, 8:57 PM)94% (Sep 15, 5:55 AM)30.28 "Hg (Sep 15, 5:55 AM)
Low44 °F (Sep 25, 6:56 AM)52% (Sep 20, 1:56 PM)29.08 "Hg (Sep 15, 5:55 AM)
Average52 °F73%29.66 "Hg
* Reported Sep 10 7:56 PM — Sep 25 7:56 PM, Unalaska, Weather by CustomWeather, © 2016

Note: Actual official high and low records may vary slightly from our data, if they occured in-between our weather recording intervals... More about our weather records

Advertising

Unalaska Weather History for the Previous 24 Hours

Scroll right to see more
 ConditionsComfort  
Time TempWeatherWind HumidityBarometerVisibility
7:56 PM
Sun, Sep 25
52 °FOvercast.17 mph53%30.04 "Hg10 mi
6:56 PM51 °FPartly sunny.17 mph56%30.06 "Hg10 mi
5:56 PM51 °FOvercast.18 mph59%30.08 "Hg10 mi
4:56 PM51 °FOvercast.20 mph59%30.10 "Hg10 mi
3:56 PM51 °FMostly cloudy.16 mph61%30.12 "Hg10 mi
2:56 PM50 °FMostly cloudy.15 mph66%30.14 "Hg10 mi
1:56 PM50 °FLight rain. Partly sunny.9 mph66%30.15 "Hg10 mi
12:56 PM49 °FBroken clouds.8 mph71%30.16 "Hg10 mi
11:56 AM50 °FPartly sunny.10 mph66%30.16 "Hg10 mi
10:56 AM47 °FPartly sunny.No wind74%30.16 "Hg10 mi
9:56 AM44 °FBroken clouds.3 mph82%30.16 "Hg10 mi
8:56 AM45 °FPassing clouds.No wind76%30.15 "Hg10 mi
7:56 AM44 °FPassing clouds.3 mph82%30.15 "Hg10 mi
6:56 AM44 °FPassing clouds.No wind85%30.15 "Hg10 mi
5:56 AM45 °FOvercast.No wind80%30.16 "Hg10 mi
4:56 AM45 °FLight rain. Mostly cloudy.No wind82%30.15 "Hg10 mi
3:56 AM45 °FLight rain. Mostly cloudy.No wind82%30.15 "Hg10 mi
2:56 AM45 °FOvercast.No wind86%30.13 "Hg10 mi
1:56 AM46 °FRain. Fog.3 mph86%30.14 "Hg5 mi
12:56 AM46 °FLight rain. Overcast.No wind83%30.13 "Hg10 mi
11:56 PM
Sat, Sep 24
48 °FOvercast.No wind77%30.12 "Hg10 mi
10:56 PM48 °FLight rain. Overcast.No wind80%30.11 "Hg10 mi
9:56 PM48 °FOvercast.6 mph80%30.09 "Hg10 mi
Weather by CustomWeather, © 2016

See weather overviewHow to use our weather pages